Location: 5810 Zion Rd, Cleves, OH 45002, USA
(39.1922°N, 84.7113°W)
Time: 13:00:31
(UTC-05:00)

A-11 Canister half - Visible Passes

Search period start: 05 December 2019 00:00
Search period end: 15 December 2019 00:00
Orbit: 1526 x 1683 km, 47.3° (Epoch: 05 December)

Date Brightness Start Highest point End Pass type
(mag) Time Alt. Az. Time Alt. Az. Time Alt. Az.
05 Dec 11.0 05:41:29 10° S 05:49:20 26° SE 05:57:11 10° ENE visible
06 Dec 11.0 05:20:09 10° S 05:27:45 25° SE 05:35:22 10° ENE visible
07 Dec 11.0 04:58:51 10° S 05:06:10 23° SE 05:13:30 10° ENE visible
07 Dec 9.5 07:00:01 10° SW 07:10:06 73° SE 07:20:12 10° ENE visible
08 Dec 11.0 04:37:35 10° S 04:44:35 22° SE 04:51:37 10° E visible
08 Dec 9.5 06:38:25 10° SW 06:48:27 70° SE 06:58:31 10° ENE visible
09 Dec 11.0 04:16:20 10° SSE 04:23:01 20° SE 04:29:43 10° E visible
09 Dec 9.5 06:16:49 10° SW 06:26:48 68° SE 06:36:50 10° ENE visible
10 Dec 11.0 03:55:08 10° SSE 04:01:27 19° ESE 04:07:47 10° E visible
10 Dec 9.5 05:55:14 10° SW 06:05:09 65° SE 06:15:09 10° ENE visible
11 Dec 11.0 03:33:59 10° SSE 03:39:53 17° ESE 03:45:48 10° E visible
11 Dec 9.5 05:33:40 10° SW 05:43:31 62° SE 05:53:28 10° ENE visible
12 Dec 11.0 03:14:44 13° SE 03:18:19 16° ESE 03:23:45 10° E visible
12 Dec 9.5 05:13:10 14° SSW 05:21:53 60° SE 05:31:46 10° ENE visible
12 Dec 9.2 07:17:01 10° WSW 07:27:08 67° NNW 07:37:15 10° ENE visible
13 Dec 11.0 02:55:49 15° SE 02:56:45 15° ESE 03:01:39 10° E visible
13 Dec 9.6 04:54:13 26° SSW 05:00:14 57° SE 05:10:04 10° ENE visible
13 Dec 9.2 06:55:19 10° WSW 07:05:25 69° NNW 07:15:34 10° ENE visible
14 Dec 11.1 02:36:34 13° ESE 02:36:34 13° ESE 02:39:27 10° E visible
14 Dec 9.6 04:34:57 38° S 04:38:37 54° SE 04:48:22 10° ENE visible
14 Dec 9.2 06:33:36 10° WSW 06:43:43 70° NNW 06:53:52 10° ENE visible
